Notices

What's New in latest Release from April 7th, 2021:

- Updated Glossary, including Speed of Maximum Gust, and Total Hourly Precipitation

- Updated national and regional climate services offices contacts and prices information

- Addition of station inventory lists for 1981-2010, 1971-2000, and 1961-1990 Normals.

If you haven't already, please take our survey and provide feedback about our website: https://eccc.sondage-survey.ca/f/LanguageSelection.aspx?s=442ca660-fcf1-47c0-95a9-59707d6fd709

Hourly Data Report for December 23, 2019

SAINT JOHN A
NEW BRUNSWICK
Current Station Operator: NAVCAN

45°18'58.000" N
65°53'24.000" W
108.80 m
8104901
71609
YSJ

Download Data

Hourly Data (December 2019)
Hourly Data Report for December 23, 2019
TIME
LST
Temp Definition
°C
Dew Point Definition
°C
Rel Hum Definition
%
Precip. Amount Definition
mm

Wind Dir Definition
10's deg

Wind Spd Definition
km/h
Visibility Definition
km
Stn Press Definition
kPa
Hmdx Definition


Wind Chill Definition


Weather Definition


00:00 -0.2 -1.9 88   31 19 12.9 100.09   -5 LegendNANA
01:00 -0.9 -2.3 90   33 16 12.9 100.07   -6 LegendNANA
02:00 -1.1 -2.7 89   32 22 12.9 100.12   -7 Clear
03:00 -1.6 -3.1 90   32 17 12.9 100.15   -7 LegendNANA
04:00 -2.3 -3.5 92   31 16 24.1 100.16   -7 LegendNANA
05:00 -2.7 -3.9 92   30 13 24.1 100.18   -7 Mainly Clear
06:00 -2.9 -4.0 92   30 10 24.1 100.21   -7 LegendNANA
07:00 -2.8 -3.9 92   31 12 24.1 100.21   -7 LegendNANA
08:00 -3.0 -4.0 93   27 5 19.3 100.21   -5 Mostly Cloudy
09:00 -2.2 -3.4 92   27 10 19.3 100.27   -6 LegendNANA
10:00 -1.7 -3.1 90   30 9 19.3 100.31   -5 LegendNANA
11:00 -0.8 -3.1 84   28 9 19.3 100.27   -4 Cloudy
12:00 -0.2 -3.5 78   31 8 24.1 100.16   -3 LegendNANA
13:00 0.7 -4.0 70   25 5 24.1 100.03     LegendNANA
14:00 0.6 -3.6 74   20 16 24.1 99.88     Cloudy
15:00 0.6 -2.8 78   20 14 24.1 99.79     LegendNANA
16:00 0.8 -2.2 80   18 10 24.1 99.68     LegendNANA
17:00 1.0 -1.0 87   18 8 24.1 99.56     Cloudy
18:00 2.7 0.5 85   19 19 24.1 99.42     LegendNANA
19:00 3.2 1.5 89   19 26 24.1 99.38     LegendNANA
20:00 4.2 2.5 89   20 32 24.1 99.20     Cloudy
21:00 5.1 3.6 90   22 26 24.1 99.12     LegendNANA
22:00 5.2 3.9 91   24 18 24.1 99.05     LegendNANA
23:00 4.6 3.0 89   27 15 24.1 99.00     Cloudy

Notes on Data Quality.

Legend

  • E = Estimated
  • M = Missing
  • NA = Not Available*
  • [empty] = Indicates an unobserved value
Date modified: